TIFM7: Elk River, Tiff City, MO

Data processed at Fri Jun 05 2020 22:55


All information presented herein is the property of the government of the United States of America and may be revised or deleted at any time without prior notice.
Dissemination of this information without the expressed written consent of the Public Affairs Office, Tulsa District U.S. Army Corps of Engineers is strictly prohibited.
These data are gathered electronically and, as presented, have not undergone any form of quality control. These data are not guaranteed to be valid or correct.
Go to home page.
Go to station list.
Go to home page.

Upstream stations:

Downstream station:
Previous Day
Next Day
Current Day
    
SHEF ID:       TIFM7     Elk River near Tiff City, Mo
STATION TYPE:  
Regulating: Stage =    15.00, Flow =    18705

               PRECIP     STAGE  STAGE(2)  RIV-FLOW   VOLTAGE
                   in        ft        ft       cfs      volt
              Ccp-Rev   Ccp-Rev   Ccp-Rev   Ccp-Rev   Ccp-Rev
(US/Central)
06/05 00:00      0.00      5.21      5.20      1397     12.80
06/05 01:00      0.00      5.20      5.20      1387     12.80
06/05 02:00      0.00      5.19      5.18      1377     12.80
06/05 03:00      0.00      5.19      5.19      1377     12.80
06/05 04:00      0.00      5.18      5.18      1367     12.80
06/05 05:00      0.00      5.18      5.21      1367     12.80
06/05 06:00      0.00      5.17      5.19      1357     12.80
06/05 07:00      0.00      5.17      5.17      1357     13.00
06/05 08:00      0.00      5.16      5.16      1347     13.50
06/05 09:00      0.00      5.15      5.16      1337     13.50
06/05 10:00      0.00      5.14      5.13      1328     13.40
06/05 11:00      0.00      5.14      5.14      1328     13.40
06/05 12:00      0.00      5.13      5.13      1318     13.30
06/05 13:00      0.00      5.13      5.18      1318     13.90
06/05 14:00      0.00      5.12      5.13      1308     13.50
06/05 15:00      0.00      5.12      5.16      1308     13.20
06/05 16:00      0.00      5.11      5.11      1299     13.80
06/05 17:00      0.00      5.10      5.09      1289     13.40
06/05 18:00      0.00      5.08      5.07      1270     13.00
06/05 19:00      0.00      5.08      5.06      1270     12.90
06/05 20:00      0.00      5.07      5.07      1261     12.90
06/05 21:00      0.00      5.07      5.06      1261     12.90
06/05 22:00      ----      ----      ----      ----      ----
06/05 23:00      ----      ----      ----      ----      ----